Location: Newark
(44.0160°N, 116.9215°W)
Time: 20:47:34
(UTC+00:00)

Envisat - Pass Details

Date: 20 November 2019
Orbit: 764 x 766 km, 98.1° (Epoch: 09 December)

Event Time Altitude Azimuth Distance (km) Brightness Sun altitude
Rises 03:16:55 0° 218° (SW) 3,221 6.7 -32.0°
Reaches altitude 10° 03:20:37 10° 246° (WSW) 2,301 6.1 -32.6°
Maximum altitude 03:22:50 13° 272° (W) 2,113 6.1 -33.0°
Drops below altitude 10° 03:25:04 10° 298° (WNW) 2,308 6.2 -33.4°
Sets 03:28:49 0° 327° (NNW) 3,241 6.7 -34.1°
